Year,Month,Day,Hour,Minute,Value (Times are PST for temperature in C)
2006,08,21,00,00,16.40
2006,08,21,00,01,16.40
2006,08,21,00,02,16.30
2006,08,21,00,03,16.30
2006,08,21,00,04,16.30
2006,08,21,00,05,16.20
2006,08,21,00,06,16.20
2006,08,21,00,07,16.20
2006,08,21,00,08,16.20
2006,08,21,00,09,16.10
2006,08,21,00,10,16.10
2006,08,21,00,11,16.10
2006,08,21,00,12,16.10
2006,08,21,00,13,16.00
2006,08,21,00,14,16.00
2006,08,21,00,15,15.90
2006,08,21,00,16,15.90
2006,08,21,00,17,15.90
2006,08,21,00,18,15.90
2006,08,21,00,19,15.80
2006,08,21,00,20,15.80
2006,08,21,00,21,15.80
2006,08,21,00,22,15.80
2006,08,21,00,23,15.80
2006,08,21,00,24,15.70
2006,08,21,00,25,15.70
2006,08,21,00,26,15.70
2006,08,21,00,27,15.70
2006,08,21,00,28,15.70
2006,08,21,00,29,15.60
2006,08,21,00,30,15.60
2006,08,21,00,31,15.60
2006,08,21,00,32,15.50
2006,08,21,00,33,15.50
2006,08,21,00,34,15.40
2006,08,21,00,35,15.40
2006,08,21,00,36,15.40
2006,08,21,00,37,15.30
2006,08,21,00,38,15.30
2006,08,21,00,39,15.20
2006,08,21,00,40,15.20
2006,08,21,00,41,15.20
2006,08,21,00,42,15.10
2006,08,21,00,43,15.00
2006,08,21,00,44,15.00
2006,08,21,00,45,15.00
2006,08,21,00,46,15.00
2006,08,21,00,47,15.00
2006,08,21,00,48,15.00
2006,08,21,00,49,15.00
2006,08,21,00,50,15.00
2006,08,21,00,51,15.00
2006,08,21,00,52,14.90
2006,08,21,00,53,14.90
2006,08,21,00,54,14.90
2006,08,21,00,55,14.80
2006,08,21,00,56,14.80
2006,08,21,00,57,14.80
2006,08,21,00,58,14.80
2006,08,21,00,59,14.70
2006,08,21,01,00,14.70
2006,08,21,01,01,14.70
2006,08,21,01,02,14.70
2006,08,21,01,03,14.80
2006,08,21,01,04,14.80
2006,08,21,01,05,14.80
2006,08,21,01,06,14.80
2006,08,21,01,07,14.80
2006,08,21,01,08,14.80
2006,08,21,01,09,14.80
2006,08,21,01,10,14.80
2006,08,21,01,11,14.80
2006,08,21,01,12,14.70
2006,08,21,01,13,14.70
2006,08,21,01,14,14.70
2006,08,21,01,15,14.70
2006,08,21,01,16,14.70
2006,08,21,01,17,14.70
2006,08,21,01,18,14.60
2006,08,21,01,19,14.60
2006,08,21,01,20,14.60
2006,08,21,01,21,14.60
2006,08,21,01,22,14.60
2006,08,21,01,23,14.60
2006,08,21,01,24,14.60
2006,08,21,01,25,14.60
2006,08,21,01,26,14.60
2006,08,21,01,27,14.60
2006,08,21,01,28,14.60
2006,08,21,01,29,14.60
2006,08,21,01,30,14.60
2006,08,21,01,31,14.70
2006,08,21,01,32,14.70
2006,08,21,01,33,14.80
2006,08,21,01,34,14.80
2006,08,21,01,35,14.80
2006,08,21,01,36,14.90
2006,08,21,01,37,14.90
2006,08,21,01,38,15.00
2006,08,21,01,39,15.00
2006,08,21,01,40,15.00
2006,08,21,01,41,15.00
2006,08,21,01,42,15.00
2006,08,21,01,43,15.00
2006,08,21,01,44,15.00
2006,08,21,01,45,15.00
2006,08,21,01,46,15.00
2006,08,21,01,47,15.00
2006,08,21,01,48,15.00
2006,08,21,01,49,14.90
2006,08,21,01,50,14.90
2006,08,21,01,51,14.90
2006,08,21,01,52,14.80
2006,08,21,01,53,14.80
2006,08,21,01,54,14.80
2006,08,21,01,55,14.70
2006,08,21,01,56,14.70
2006,08,21,01,57,14.70
2006,08,21,01,58,14.70
2006,08,21,01,59,14.60
2006,08,21,02,00,14.60
2006,08,21,02,01,14.60
2006,08,21,02,02,14.60
2006,08,21,02,03,14.50
2006,08,21,02,04,14.50
2006,08,21,02,05,14.50
2006,08,21,02,06,14.50
2006,08,21,02,07,14.50
2006,08,21,02,08,14.50
2006,08,21,02,09,14.50
2006,08,21,02,10,14.40
2006,08,21,02,11,14.40
2006,08,21,02,12,14.40
2006,08,21,02,13,14.40
2006,08,21,02,14,14.30
2006,08,21,02,15,14.30
2006,08,21,02,16,14.30
2006,08,21,02,17,14.30
2006,08,21,02,18,14.30
2006,08,21,02,19,14.20
2006,08,21,02,20,14.20
2006,08,21,02,21,14.20
2006,08,21,02,22,14.20
2006,08,21,02,23,14.20
2006,08,21,02,24,14.10
2006,08,21,02,25,14.10
2006,08,21,02,26,14.10
2006,08,21,02,27,14.00
2006,08,21,02,28,14.00
2006,08,21,02,29,13.90
2006,08,21,02,30,13.90
2006,08,21,02,31,13.90
2006,08,21,02,32,13.90
2006,08,21,02,33,13.90
2006,08,21,02,34,13.90
2006,08,21,02,35,13.90
2006,08,21,02,36,13.90
2006,08,21,02,37,13.90
2006,08,21,02,38,13.90
2006,08,21,02,39,13.90
2006,08,21,02,40,13.90
2006,08,21,02,41,13.90
2006,08,21,02,42,13.90
2006,08,21,02,43,13.90
2006,08,21,02,44,13.90
2006,08,21,02,45,13.90
2006,08,21,02,46,13.90
2006,08,21,02,47,13.90
2006,08,21,02,48,13.90
2006,08,21,02,49,13.90
2006,08,21,02,50,13.90
2006,08,21,02,51,13.80
2006,08,21,02,52,13.80
2006,08,21,02,53,13.80
2006,08,21,02,54,13.80
2006,08,21,02,55,13.70
2006,08,21,02,56,13.70
2006,08,21,02,57,13.70
2006,08,21,02,58,13.70
2006,08,21,02,59,13.60
2006,08,21,03,00,13.60
2006,08,21,03,01,13.60
2006,08,21,03,02,13.60
2006,08,21,03,03,13.50
2006,08,21,03,04,13.50
2006,08,21,03,05,13.50
2006,08,21,03,06,13.40
2006,08,21,03,07,13.40
2006,08,21,03,08,13.40
2006,08,21,03,09,13.40
2006,08,21,03,10,13.40
2006,08,21,03,11,13.40
2006,08,21,03,12,13.30
2006,08,21,03,13,13.30
2006,08,21,03,14,13.30
2006,08,21,03,15,13.30
2006,08,21,03,16,13.30
2006,08,21,03,17,13.30
2006,08,21,03,18,13.30
2006,08,21,03,19,13.30
2006,08,21,03,20,13.30
2006,08,21,03,21,13.30
2006,08,21,03,22,13.30
2006,08,21,03,23,13.30
2006,08,21,03,24,13.30
2006,08,21,03,25,13.30
2006,08,21,03,26,13.20
2006,08,21,03,27,13.20
2006,08,21,03,28,13.20
2006,08,21,03,29,13.20
2006,08,21,03,30,13.20
2006,08,21,03,31,13.20
2006,08,21,03,32,13.20
2006,08,21,03,33,13.20
2006,08,21,03,34,13.10
2006,08,21,03,35,13.10
2006,08,21,03,36,13.10
2006,08,21,03,37,13.10
2006,08,21,03,38,13.10
2006,08,21,03,39,13.00
2006,08,21,03,40,13.00
2006,08,21,03,41,13.00
2006,08,21,03,42,13.00
2006,08,21,03,43,12.90
2006,08,21,03,44,12.90
2006,08,21,03,45,12.90
2006,08,21,03,46,12.90
2006,08,21,03,47,12.80
2006,08,21,03,48,12.80
2006,08,21,03,49,12.80
2006,08,21,03,50,12.80
2006,08,21,03,51,12.80
2006,08,21,03,52,12.90
2006,08,21,03,53,12.90
2006,08,21,03,54,12.90
2006,08,21,03,55,12.90
2006,08,21,03,56,12.90
2006,08,21,03,57,12.80
2006,08,21,03,58,12.80
2006,08,21,03,59,12.80
2006,08,21,04,00,12.80
2006,08,21,04,01,12.90
2006,08,21,04,02,12.90
2006,08,21,04,03,12.90
2006,08,21,04,04,12.90
2006,08,21,04,05,12.90
2006,08,21,04,06,12.90
2006,08,21,04,07,12.90
2006,08,21,04,08,12.90
2006,08,21,04,09,12.90
2006,08,21,04,10,12.90
2006,08,21,04,11,12.90
2006,08,21,04,12,12.90
2006,08,21,04,13,12.90
2006,08,21,04,14,12.90
2006,08,21,04,15,12.80
2006,08,21,04,16,12.80
2006,08,21,04,17,12.90
2006,08,21,04,18,12.90
2006,08,21,04,19,12.90
2006,08,21,04,20,12.90
2006,08,21,04,21,12.90
2006,08,21,04,22,12.90
2006,08,21,04,23,12.90
2006,08,21,04,24,12.90
2006,08,21,04,25,12.90
2006,08,21,04,26,13.00
2006,08,21,04,27,13.00
2006,08,21,04,28,13.00
2006,08,21,04,29,13.00
2006,08,21,04,30,13.00
2006,08,21,04,31,13.00
2006,08,21,04,32,13.00
2006,08,21,04,33,13.00
2006,08,21,04,34,13.00
2006,08,21,04,35,13.00
2006,08,21,04,36,13.00
2006,08,21,04,37,13.00
2006,08,21,04,38,12.90
2006,08,21,04,39,12.90
2006,08,21,04,40,12.90
2006,08,21,04,41,12.90
2006,08,21,04,42,12.90
2006,08,21,04,43,12.90
2006,08,21,04,44,12.90
2006,08,21,04,45,12.80
2006,08,21,04,46,12.80
2006,08,21,04,47,12.80
2006,08,21,04,48,12.80
2006,08,21,04,49,12.80
2006,08,21,04,50,12.80
2006,08,21,04,51,12.70
2006,08,21,04,52,12.70
2006,08,21,04,53,12.70
2006,08,21,04,54,12.60
2006,08,21,04,55,12.60
2006,08,21,04,56,12.60
2006,08,21,04,57,12.50
2006,08,21,04,58,12.50
2006,08,21,04,59,12.40
2006,08,21,05,00,12.40
2006,08,21,05,01,12.40
2006,08,21,05,02,12.40
2006,08,21,05,03,12.40
2006,08,21,05,04,12.40
2006,08,21,05,05,12.40
2006,08,21,05,06,12.30
2006,08,21,05,07,12.30
2006,08,21,05,08,12.30
2006,08,21,05,09,12.30
2006,08,21,05,10,12.30
2006,08,21,05,11,12.30
2006,08,21,05,12,12.30
2006,08,21,05,13,12.40
2006,08,21,05,14,12.40
2006,08,21,05,15,12.40
2006,08,21,05,16,12.40
2006,08,21,05,17,12.40
2006,08,21,05,18,12.50
2006,08,21,05,19,12.50
2006,08,21,05,20,12.50
2006,08,21,05,21,12.50
2006,08,21,05,22,12.50
2006,08,21,05,23,12.50
2006,08,21,05,24,12.50
2006,08,21,05,25,12.60
2006,08,21,05,26,12.50
2006,08,21,05,27,12.50
2006,08,21,05,28,12.50
2006,08,21,05,29,12.50
2006,08,21,05,30,12.40
2006,08,21,05,31,12.40
2006,08,21,05,32,12.40
2006,08,21,05,33,12.40
2006,08,21,05,34,12.40
2006,08,21,05,35,12.30
2006,08,21,05,36,12.30
2006,08,21,05,37,12.30
2006,08,21,05,38,12.20
2006,08,21,05,39,12.20
2006,08,21,05,40,12.20
2006,08,21,05,41,12.20
2006,08,21,05,42,12.20
2006,08,21,05,43,12.10
2006,08,21,05,44,12.10
2006,08,21,05,45,12.10
2006,08,21,05,46,12.10
2006,08,21,05,47,12.00
2006,08,21,05,48,12.00
2006,08,21,05,49,12.00
2006,08,21,05,50,12.00
2006,08,21,05,51,12.00
2006,08,21,05,52,12.00
2006,08,21,05,53,12.00
2006,08,21,05,54,12.00
2006,08,21,05,55,12.00
2006,08,21,05,56,12.00
2006,08,21,05,57,12.00
2006,08,21,05,58,12.00
2006,08,21,05,59,12.00
2006,08,21,06,00,11.90
2006,08,21,06,01,11.90
2006,08,21,06,02,11.90
2006,08,21,06,03,12.00
2006,08,21,06,04,12.00
2006,08,21,06,05,12.00
2006,08,21,06,06,12.00
2006,08,21,06,07,12.00
2006,08,21,06,08,12.00
2006,08,21,06,09,12.10
2006,08,21,06,10,12.10
2006,08,21,06,11,12.10
2006,08,21,06,12,12.10
2006,08,21,06,13,12.20
2006,08,21,06,14,12.20
2006,08,21,06,15,12.20
2006,08,21,06,16,12.20
2006,08,21,06,17,12.20
2006,08,21,06,18,12.20
2006,08,21,06,19,12.20
2006,08,21,06,20,12.20
2006,08,21,06,21,12.20
2006,08,21,06,22,12.20
2006,08,21,06,23,12.20
2006,08,21,06,24,12.20
2006,08,21,06,25,12.20
2006,08,21,06,26,12.20
2006,08,21,06,27,12.20
2006,08,21,06,28,12.20
2006,08,21,06,29,12.20
2006,08,21,06,30,12.20
2006,08,21,06,31,12.10
2006,08,21,06,32,12.10
2006,08,21,06,33,12.10
2006,08,21,06,34,12.10
2006,08,21,06,35,12.10
2006,08,21,06,36,12.00
2006,08,21,06,37,12.00
2006,08,21,06,38,12.00
2006,08,21,06,39,11.90
2006,08,21,06,40,11.90
2006,08,21,06,41,11.90
2006,08,21,06,42,11.90
2006,08,21,06,43,11.90
2006,08,21,06,44,11.90
2006,08,21,06,45,11.90
2006,08,21,06,46,11.90
2006,08,21,06,47,11.90
2006,08,21,06,48,11.90
2006,08,21,06,49,11.90
2006,08,21,06,50,11.90
2006,08,21,06,51,11.90
2006,08,21,06,52,11.90
2006,08,21,06,53,11.90
2006,08,21,06,54,11.90
2006,08,21,06,55,12.00
2006,08,21,06,56,12.00
2006,08,21,06,57,12.00
2006,08,21,06,58,12.10
2006,08,21,06,59,12.10
2006,08,21,07,00,12.10
2006,08,21,07,01,12.10
2006,08,21,07,02,12.20
2006,08,21,07,03,12.20
2006,08,21,07,04,12.20
2006,08,21,07,05,12.30
2006,08,21,07,06,12.30
2006,08,21,07,07,12.30
2006,08,21,07,08,12.30
2006,08,21,07,09,12.40
2006,08,21,07,10,12.40
2006,08,21,07,11,12.40
2006,08,21,07,12,12.40
2006,08,21,07,13,12.40
2006,08,21,07,14,12.40
2006,08,21,07,15,12.40
2006,08,21,07,16,12.40
2006,08,21,07,17,12.40
2006,08,21,07,18,12.40
2006,08,21,07,19,12.40
2006,08,21,07,20,12.50
2006,08,21,07,21,12.50
2006,08,21,07,22,12.50
2006,08,21,07,23,12.60
2006,08,21,07,24,12.60
2006,08,21,07,25,12.60
2006,08,21,07,26,12.70
2006,08,21,07,27,12.70
2006,08,21,07,28,12.80
2006,08,21,07,29,12.90
2006,08,21,07,30,12.90
2006,08,21,07,31,13.00
2006,08,21,07,32,13.10
2006,08,21,07,33,13.10
2006,08,21,07,34,13.20
2006,08,21,07,35,13.20
2006,08,21,07,36,13.30
2006,08,21,07,37,13.40
2006,08,21,07,38,13.40
2006,08,21,07,39,13.50
2006,08,21,07,40,13.60
2006,08,21,07,41,13.70
2006,08,21,07,42,13.80
2006,08,21,07,43,14.00
2006,08,21,07,44,14.20
2006,08,21,07,45,14.30
2006,08,21,07,46,14.40
2006,08,21,07,47,14.50
2006,08,21,07,48,14.60
2006,08,21,07,49,14.60
2006,08,21,07,50,14.70
2006,08,21,07,51,14.90
2006,08,21,07,52,15.00
2006,08,21,07,53,15.00
2006,08,21,07,54,15.00
2006,08,21,07,55,15.00
2006,08,21,07,56,15.10
2006,08,21,07,57,15.20
2006,08,21,07,58,15.40
2006,08,21,07,59,15.50
2006,08,21,08,00,15.70
2006,08,21,08,01,15.70
2006,08,21,08,02,15.80
2006,08,21,08,03,15.80
2006,08,21,08,04,15.90
2006,08,21,08,05,16.00
2006,08,21,08,06,16.10
2006,08,21,08,07,16.20
2006,08,21,08,08,16.20
2006,08,21,08,09,16.30
2006,08,21,08,10,16.30
2006,08,21,08,11,16.30
2006,08,21,08,12,16.30
2006,08,21,08,13,16.30
2006,08,21,08,14,16.30
2006,08,21,08,15,16.40
2006,08,21,08,16,16.50
2006,08,21,08,17,16.50
2006,08,21,08,18,16.60
2006,08,21,08,19,16.60
2006,08,21,08,20,16.70
2006,08,21,08,21,16.80
2006,08,21,08,22,16.90
2006,08,21,08,23,17.00
2006,08,21,08,24,17.10
2006,08,21,08,25,17.30
2006,08,21,08,26,17.50
2006,08,21,08,27,17.60
2006,08,21,08,28,17.70
2006,08,21,08,29,17.80
2006,08,21,08,30,17.80
2006,08,21,08,31,17.90
2006,08,21,08,32,18.00
2006,08,21,08,33,18.10
2006,08,21,08,34,18.10
2006,08,21,08,35,18.20
2006,08,21,08,36,18.20
2006,08,21,08,37,18.30
2006,08,21,08,38,18.50
2006,08,21,08,39,18.60
2006,08,21,08,40,18.70
2006,08,21,08,41,18.80
2006,08,21,08,42,18.90
2006,08,21,08,43,19.00
2006,08,21,08,44,19.00
2006,08,21,08,45,19.10
2006,08,21,08,46,19.10
2006,08,21,08,47,19.10
2006,08,21,08,48,19.10
2006,08,21,08,49,19.10
2006,08,21,08,50,19.00
2006,08,21,08,51,18.90
2006,08,21,08,52,18.80
2006,08,21,08,53,18.60
2006,08,21,08,54,18.40
2006,08,21,08,55,18.30
2006,08,21,08,56,18.20
2006,08,21,08,57,18.20
2006,08,21,08,58,18.10
2006,08,21,08,59,18.00
2006,08,21,09,00,18.00
2006,08,21,09,01,17.90
2006,08,21,09,02,17.80
2006,08,21,09,03,17.80
2006,08,21,09,04,17.70
2006,08,21,09,05,17.60
2006,08,21,09,06,17.60
2006,08,21,09,07,17.70
2006,08,21,09,08,17.70
2006,08,21,09,09,17.80
2006,08,21,09,10,17.90
2006,08,21,09,11,18.00
2006,08,21,09,12,18.20
2006,08,21,09,13,18.30
2006,08,21,09,14,18.40
2006,08,21,09,15,18.50
2006,08,21,09,16,18.60
2006,08,21,09,17,18.60
2006,08,21,09,18,18.70
2006,08,21,09,19,18.70
2006,08,21,09,20,18.70
2006,08,21,09,21,18.80
2006,08,21,09,22,18.90
2006,08,21,09,23,18.90
2006,08,21,09,24,19.00
2006,08,21,09,25,19.10
2006,08,21,09,26,19.20
2006,08,21,09,27,19.30
2006,08,21,09,28,19.30
2006,08,21,09,29,19.30
2006,08,21,09,30,19.40
2006,08,21,09,31,19.50
2006,08,21,09,32,19.60
2006,08,21,09,33,19.80
2006,08,21,09,34,20.00
2006,08,21,09,35,20.10
2006,08,21,09,36,20.10
2006,08,21,09,37,20.10
2006,08,21,09,38,20.10
2006,08,21,09,39,20.00
2006,08,21,09,40,20.00
2006,08,21,09,41,20.10
2006,08,21,09,42,20.20
2006,08,21,09,43,20.20
2006,08,21,09,44,20.20
2006,08,21,09,45,20.20
2006,08,21,09,46,20.20
2006,08,21,09,47,20.30
2006,08,21,09,48,20.40
2006,08,21,09,49,20.40
2006,08,21,09,50,20.50
2006,08,21,09,51,20.50
2006,08,21,09,52,20.50
2006,08,21,09,53,20.60
2006,08,21,09,54,20.60
2006,08,21,09,55,20.70
2006,08,21,09,56,20.70
2006,08,21,09,57,20.70
2006,08,21,09,58,20.50
2006,08,21,09,59,20.40
2006,08,21,10,00,20.30
2006,08,21,10,01,20.30
2006,08,21,10,02,20.40
2006,08,21,10,03,20.40
2006,08,21,10,04,20.50
2006,08,21,10,05,20.60
2006,08,21,10,06,20.60
2006,08,21,10,07,20.60
2006,08,21,10,08,20.50
2006,08,21,10,09,20.40
2006,08,21,10,10,20.20
2006,08,21,10,11,20.10
2006,08,21,10,12,20.00
2006,08,21,10,13,19.90
2006,08,21,10,14,19.80
2006,08,21,10,15,19.80
2006,08,21,10,16,19.70
2006,08,21,10,17,19.70
2006,08,21,10,18,19.80
2006,08,21,10,19,19.80
2006,08,21,10,20,19.90
2006,08,21,10,21,19.90
2006,08,21,10,22,20.00
2006,08,21,10,23,20.00
2006,08,21,10,24,20.00
2006,08,21,10,25,20.10
2006,08,21,10,26,20.20
2006,08,21,10,27,20.20
2006,08,21,10,28,20.20
2006,08,21,10,29,20.20
2006,08,21,10,30,20.20
2006,08,21,10,31,20.20
2006,08,21,10,32,20.20
2006,08,21,10,33,20.20
2006,08,21,10,34,20.20
2006,08,21,10,35,20.30
2006,08,21,10,36,20.40
2006,08,21,10,37,20.40
2006,08,21,10,38,20.40
2006,08,21,10,39,20.40
2006,08,21,10,40,20.40
2006,08,21,10,41,20.30
2006,08,21,10,42,20.40
2006,08,21,10,43,20.50
2006,08,21,10,44,20.60
2006,08,21,10,45,20.60
2006,08,21,10,46,20.50
2006,08,21,10,47,20.40
2006,08,21,10,48,20.40
2006,08,21,10,49,20.40
2006,08,21,10,50,20.50
2006,08,21,10,51,20.60
2006,08,21,10,52,20.70
2006,08,21,10,53,20.70
2006,08,21,10,54,20.70
2006,08,21,10,55,20.80
2006,08,21,10,56,20.90
2006,08,21,10,57,21.00
2006,08,21,10,58,21.10
2006,08,21,10,59,21.20
2006,08,21,11,00,21.40
2006,08,21,11,01,21.40
2006,08,21,11,02,21.30
2006,08,21,11,03,21.20
2006,08,21,11,04,21.20
2006,08,21,11,05,21.10
2006,08,21,11,06,21.20
2006,08,21,11,07,21.20
2006,08,21,11,08,21.30
2006,08,21,11,09,21.40
2006,08,21,11,10,21.50
2006,08,21,11,11,21.60
2006,08,21,11,12,21.60
2006,08,21,11,13,21.50
2006,08,21,11,14,21.50
2006,08,21,11,15,21.40
2006,08,21,11,16,21.40
2006,08,21,11,17,21.40
2006,08,21,11,18,21.30
2006,08,21,11,19,21.20
2006,08,21,11,20,21.10
2006,08,21,11,21,21.20
2006,08,21,11,22,21.20
2006,08,21,11,23,21.30
2006,08,21,11,24,21.30
2006,08,21,11,25,21.40
2006,08,21,11,26,21.40
2006,08,21,11,27,21.50
2006,08,21,11,28,21.70
2006,08,21,11,29,21.80
2006,08,21,11,30,21.90
2006,08,21,11,31,22.00
2006,08,21,11,32,22.00
2006,08,21,11,33,22.00
2006,08,21,11,34,22.00
2006,08,21,11,35,22.10
2006,08,21,11,36,22.20
2006,08,21,11,37,22.30
2006,08,21,11,38,22.20
2006,08,21,11,39,22.10
2006,08,21,11,40,22.10
2006,08,21,11,41,22.10
2006,08,21,11,42,22.10
2006,08,21,11,43,22.20
2006,08,21,11,44,22.30
2006,08,21,11,45,22.30
2006,08,21,11,46,22.20
2006,08,21,11,47,22.20
2006,08,21,11,48,22.20
2006,08,21,11,49,22.20
2006,08,21,11,50,22.30
2006,08,21,11,51,22.20
2006,08,21,11,52,22.20
2006,08,21,11,53,22.30
2006,08,21,11,54,22.40
2006,08,21,11,55,22.50
2006,08,21,11,56,22.40
2006,08,21,11,57,22.30
2006,08,21,11,58,22.10
2006,08,21,11,59,21.90
2006,08,21,12,00,21.80
2006,08,21,12,01,21.70
2006,08,21,12,02,21.70
2006,08,21,12,03,21.80
2006,08,21,12,04,21.80
2006,08,21,12,05,21.90
2006,08,21,12,06,22.00
2006,08,21,12,07,22.10
2006,08,21,12,08,22.10
2006,08,21,12,09,22.10
2006,08,21,12,10,22.10
2006,08,21,12,11,22.10
2006,08,21,12,12,22.10
2006,08,21,12,13,22.10
2006,08,21,12,14,22.10
2006,08,21,12,15,22.20
2006,08,21,12,16,22.10
2006,08,21,12,17,22.10
2006,08,21,12,18,22.20
2006,08,21,12,19,22.30
2006,08,21,12,20,22.30
2006,08,21,12,21,22.20
2006,08,21,12,22,22.30
2006,08,21,12,23,22.30
2006,08,21,12,24,22.40
2006,08,21,12,25,22.40
2006,08,21,12,26,22.40
2006,08,21,12,27,22.40
2006,08,21,12,28,22.30
2006,08,21,12,29,22.30
2006,08,21,12,30,22.40
2006,08,21,12,31,22.40
2006,08,21,12,32,22.40
2006,08,21,12,33,22.40
2006,08,21,12,34,22.50
2006,08,21,12,35,22.50
2006,08,21,12,36,22.60
2006,08,21,12,37,22.50
2006,08,21,12,38,22.50
2006,08,21,12,39,22.40
2006,08,21,12,40,22.30
2006,08,21,12,41,22.30
2006,08,21,12,42,22.40
2006,08,21,12,43,22.40
2006,08,21,12,44,22.30
2006,08,21,12,45,22.20
2006,08,21,12,46,22.10
2006,08,21,12,47,22.00
2006,08,21,12,48,21.90
2006,08,21,12,49,21.90
2006,08,21,12,50,22.00
2006,08,21,12,51,22.10
2006,08,21,12,52,22.20
2006,08,21,12,53,22.20
2006,08,21,12,54,22.20
2006,08,21,12,55,22.10
2006,08,21,12,56,22.00
2006,08,21,12,57,22.00
2006,08,21,12,58,22.10
2006,08,21,12,59,22.20
2006,08,21,13,00,22.30
2006,08,21,13,01,22.40
2006,08,21,13,02,22.50
2006,08,21,13,03,22.50
2006,08,21,13,04,22.40
2006,08,21,13,05,22.40
2006,08,21,13,06,22.30
2006,08,21,13,07,22.30
2006,08,21,13,08,22.30
2006,08,21,13,09,22.40
2006,08,21,13,10,22.50
2006,08,21,13,11,22.40
2006,08,21,13,12,22.40
2006,08,21,13,13,22.40
2006,08,21,13,14,22.40
2006,08,21,13,15,22.40
2006,08,21,13,16,22.40
2006,08,21,13,17,22.40
2006,08,21,13,18,22.30
2006,08,21,13,19,22.20
2006,08,21,13,20,22.20
2006,08,21,13,21,22.20
2006,08,21,13,22,22.20
2006,08,21,13,23,22.10
2006,08,21,13,24,22.10
2006,08,21,13,25,22.10
2006,08,21,13,26,22.10
2006,08,21,13,27,22.10
2006,08,21,13,28,22.20
2006,08,21,13,29,22.30
2006,08,21,13,30,22.40
2006,08,21,13,31,22.60
2006,08,21,13,32,22.80
2006,08,21,13,33,23.00
2006,08,21,13,34,23.20
2006,08,21,13,35,23.30
2006,08,21,13,36,23.40
2006,08,21,13,37,23.40
2006,08,21,13,38,23.40
2006,08,21,13,39,23.40
2006,08,21,13,40,23.60
2006,08,21,13,41,23.70
2006,08,21,13,42,23.70
2006,08,21,13,43,23.70
2006,08,21,13,44,23.70
2006,08,21,13,45,23.80
2006,08,21,13,46,23.70
2006,08,21,13,47,23.60
2006,08,21,13,48,23.60
2006,08,21,13,49,23.60
2006,08,21,13,50,23.70
2006,08,21,13,51,23.70
2006,08,21,13,52,23.70
2006,08,21,13,53,23.70
2006,08,21,13,54,23.70
2006,08,21,13,55,23.90
2006,08,21,13,56,24.10
2006,08,21,13,57,24.20
2006,08,21,13,58,24.40
2006,08,21,13,59,24.60
2006,08,21,14,00,24.80
2006,08,21,14,01,25.00
2006,08,21,14,02,25.00
2006,08,21,14,03,25.00
2006,08,21,14,04,25.00
2006,08,21,14,05,25.00
2006,08,21,14,06,25.10
2006,08,21,14,07,25.20
2006,08,21,14,08,25.30
2006,08,21,14,09,25.50
2006,08,21,14,10,25.70
2006,08,21,14,11,25.90
2006,08,21,14,12,26.10
2006,08,21,14,13,26.30
2006,08,21,14,14,26.40
2006,08,21,14,15,26.40
2006,08,21,14,16,26.40
2006,08,21,14,17,26.40
2006,08,21,14,18,26.40
2006,08,21,14,19,26.50
2006,08,21,14,20,26.60
2006,08,21,14,21,26.70
2006,08,21,14,22,26.80
2006,08,21,14,23,26.80
2006,08,21,14,24,26.80
2006,08,21,14,25,26.80
2006,08,21,14,26,26.80
2006,08,21,14,27,26.70
2006,08,21,14,28,26.50
2006,08,21,14,29,26.50
2006,08,21,14,30,26.50
2006,08,21,14,31,26.50
2006,08,21,14,32,26.40
2006,08,21,14,33,26.40
2006,08,21,14,34,26.40
2006,08,21,14,35,26.40
2006,08,21,14,36,26.50
2006,08,21,14,37,26.60
2006,08,21,14,38,26.70
2006,08,21,14,39,26.70
2006,08,21,14,40,26.60
2006,08,21,14,41,26.60
2006,08,21,14,42,26.60
2006,08,21,14,43,26.60
2006,08,21,14,44,26.70
2006,08,21,14,45,26.70
2006,08,21,14,46,26.70
2006,08,21,14,47,26.70
2006,08,21,14,48,26.70
2006,08,21,14,49,26.80
2006,08,21,14,50,26.70
2006,08,21,14,51,26.70
2006,08,21,14,52,26.70
2006,08,21,14,53,26.60
2006,08,21,14,54,26.60
2006,08,21,14,55,26.60
2006,08,21,14,56,26.50
2006,08,21,14,57,26.50
2006,08,21,14,58,26.40
2006,08,21,14,59,26.40
2006,08,21,15,00,26.40
2006,08,21,15,01,26.30
2006,08,21,15,02,26.40
2006,08,21,15,03,26.40
2006,08,21,15,04,26.40
2006,08,21,15,05,26.40
2006,08,21,15,06,26.30
2006,08,21,15,07,26.30
2006,08,21,15,08,26.30
2006,08,21,15,09,26.30
2006,08,21,15,10,26.30
2006,08,21,15,11,26.20
2006,08,21,15,12,26.20
2006,08,21,15,13,26.20
2006,08,21,15,14,26.30
2006,08,21,15,15,26.30
2006,08,21,15,16,26.30
2006,08,21,15,17,26.30
2006,08,21,15,18,26.40
2006,08,21,15,19,26.40
2006,08,21,15,20,26.40
2006,08,21,15,21,26.40
2006,08,21,15,22,26.40
2006,08,21,15,23,26.40
2006,08,21,15,24,26.50
2006,08,21,15,25,26.60
2006,08,21,15,26,26.60
2006,08,21,15,27,26.70
2006,08,21,15,28,26.70
2006,08,21,15,29,26.60
2006,08,21,15,30,26.60
2006,08,21,15,31,26.60
2006,08,21,15,32,26.60
2006,08,21,15,33,26.60
2006,08,21,15,34,26.70
2006,08,21,15,35,26.70
2006,08,21,15,36,26.80
2006,08,21,15,37,26.80
2006,08,21,15,38,26.70
2006,08,21,15,39,26.80
2006,08,21,15,40,26.80
2006,08,21,15,41,26.70
2006,08,21,15,42,26.80
2006,08,21,15,43,26.80
2006,08,21,15,44,26.90
2006,08,21,15,45,26.90
2006,08,21,15,46,26.90
2006,08,21,15,47,27.00
2006,08,21,15,48,27.10
2006,08,21,15,49,27.10
2006,08,21,15,50,27.10
2006,08,21,15,51,27.10
2006,08,21,15,52,27.10
2006,08,21,15,53,27.10
2006,08,21,15,54,27.10
2006,08,21,15,55,27.10
2006,08,21,15,56,27.10
2006,08,21,15,57,27.10
2006,08,21,15,58,27.20
2006,08,21,15,59,27.30
2006,08,21,16,00,27.30
2006,08,21,16,01,27.30
2006,08,21,16,02,27.40
2006,08,21,16,03,27.50
2006,08,21,16,04,27.50
2006,08,21,16,05,27.50
2006,08,21,16,06,27.50
2006,08,21,16,07,27.40
2006,08,21,16,08,27.40
2006,08,21,16,09,27.40
2006,08,21,16,10,27.50
2006,08,21,16,11,27.40
2006,08,21,16,12,27.40
2006,08,21,16,13,27.30
2006,08,21,16,14,27.20
2006,08,21,16,15,27.10
2006,08,21,16,16,27.00
2006,08,21,16,17,26.90
2006,08,21,16,18,26.90
2006,08,21,16,19,27.00
2006,08,21,16,20,27.00
2006,08,21,16,21,26.90
2006,08,21,16,22,26.90
2006,08,21,16,23,26.90
2006,08,21,16,24,26.90
2006,08,21,16,25,26.90
2006,08,21,16,26,27.00
2006,08,21,16,27,27.10
2006,08,21,16,28,27.20
2006,08,21,16,29,27.30
2006,08,21,16,30,27.30
2006,08,21,16,31,27.30
2006,08,21,16,32,27.30
2006,08,21,16,33,27.30
2006,08,21,16,34,27.30
2006,08,21,16,35,27.20
2006,08,21,16,36,27.20
2006,08,21,16,37,27.20
2006,08,21,16,38,27.20
2006,08,21,16,39,27.20
2006,08,21,16,40,27.20
2006,08,21,16,41,27.20
2006,08,21,16,42,27.20
2006,08,21,16,43,27.20
2006,08,21,16,44,27.20
2006,08,21,16,45,27.10
2006,08,21,16,46,27.10
2006,08,21,16,47,27.00
2006,08,21,16,48,27.00
2006,08,21,16,49,27.00
2006,08,21,16,50,26.90
2006,08,21,16,51,26.90
2006,08,21,16,52,26.90
2006,08,21,16,53,27.00
2006,08,21,16,54,27.00
2006,08,21,16,55,27.00
2006,08,21,16,56,27.00
2006,08,21,16,57,26.90
2006,08,21,16,58,26.90
2006,08,21,16,59,26.80
2006,08,21,17,00,26.70
2006,08,21,17,01,26.60
2006,08,21,17,02,26.60
2006,08,21,17,03,26.50
2006,08,21,17,04,26.60
2006,08,21,17,05,26.60
2006,08,21,17,06,26.60
2006,08,21,17,07,26.60
2006,08,21,17,08,26.60
2006,08,21,17,09,26.50
2006,08,21,17,10,26.50
2006,08,21,17,11,26.50
2006,08,21,17,12,26.40
2006,08,21,17,13,26.40
2006,08,21,17,14,26.30
2006,08,21,17,15,26.30
2006,08,21,17,16,26.30
2006,08,21,17,17,26.30
2006,08,21,17,18,26.30
2006,08,21,17,19,26.20